Hourly Data

Hourly Data Report for March 09, 2012

All times are specified in Local Standard Time (LST). Add 1 hour to adjust for Daylight Saving Time where and when it is observed.

Metadata including Station Name, Province, Latitude, Longitude, Elevation, Climate ID, WMO ID, TC ID
CHARLOTTETOWN A
PRINCE EDWARD ISLAND
Latitude: 46°17'19.020" N Longitude: 63°07'43.070" W Elevation: 48.80 m
Climate ID: 8300300 WMO ID: 71706 TC ID: YYG
Hourly Data Report for March 9, 2012
Temp Definition
°C

Dew Point Temp Definition
°C

Rel Hum Definition
%

Wind Dir Definition
10's deg
Wind Spd Definition
km/h

Visibility Definition
km

Stn Press Definition
kPa

Hmdx Definition

Wind Chill Definition

Weather Definition

TIME
00:00 8.2 2.7 68 20 30 24.1 99.98 Cloudy
01:00 4.0 1.3 83 17 26 24.1 99.80 Cloudy
02:00 5.5 2.3 80 18 30 24.1 99.68 Cloudy
03:00 6.3 2.9 79 20 39 24.1 99.51 Cloudy
04:00 7.1 3.2 76 20 43 24.1 99.36 Cloudy
05:00 7.7 4.0 77 20 41 24.1 99.34 Cloudy
06:00 7.4 4.8 84 21 30 16.1 99.29 Rain Showers
07:00 5.6 4.0 89 24 11 6.4 99.29 Rain Showers,Fog
08:00 4.4 1.9 84 31 26 16.1 99.44 Rain Showers
09:00 4.0 1.7 85 28 17 16.1 99.53 Rain Showers
10:00 3.1 0.3 82 27 24 16.1 99.72 Rain Showers
11:00 1.3 -1.0 85 27 22 24.1 99.90 Snow Showers
12:00 2.3 -1.6 75 25 20 24.1 100.02 Mostly Cloudy
13:00 1.0 -3.0 75 28 22 24.1 100.14 Mostly Cloudy
14:00 2.0 -4.0 64 28 17 24.1 100.24 Mostly Cloudy
15:00 2.0 -6.6 53 29 19 24.1 100.34 Mostly Cloudy
16:00 2.0 -9.2 43 29 26 24.1 100.42 Mostly Cloudy
17:00 1.6 -9.0 45 31 22 24.1 100.53 Mostly Cloudy
18:00 1.3 -10.0 43 31 20 24.1 100.67 Mostly Cloudy
19:00 0.1 -9.7 48 31 9 24.1 100.85 Mostly Cloudy
20:00 -0.5 -9.7 50 30 7 24.1 100.93 -3 Mainly Clear
21:00 -1.2 -9.9 52 27 6 24.1 101.05 -3 Mainly Clear
22:00 -1.5 -10.2 51 29 9 24.1 101.19 -5 Mainly Clear
23:00 -2.4 -10.4 54 31 11 24.1 101.25 -6 Clear

Notes on Data Quality.

Legend
  • M = Missing
  • E = Estimated
  • NA = Not Available
  • ‡ = Partner data that is not subject to review by the National Climate Archives